Location: Borgo
(42.3939°N, 9.2791°E)
Time: 20:09:48
(UTC+00:00)

Cosmos 2344 - Pass Details

Date: 24 January 2021
Orbit: 1243 x 2999 km, 63.3° (Epoch: 03 March)

Event Time Altitude Azimuth Distance (km) Brightness Sun altitude
Rises 18:02:27 0° 324° (NW) 4,562 6.9 -17.6°
Reaches altitude 10° 18:05:08 10° 328° (NNW) 3,723 6.3 -18.1°
Maximum altitude 18:14:27 63° 49° (NE) 2,075 4.4 -19.8°
Drops below altitude 10° 18:27:28 10° 130° (SE) 5,078 6.3 -22.2°
Sets 18:31:46 0° 134° (SE) 6,310 6.8 -23.0°
Enters shadow 18:31:49 - 134° (SE) 6,324 6.8 -23.0°
